Time,TemperatureF,DewpointF,PressureIn,WindDirection,WindDirectionDegrees,WindSpeedMPH,WindSpeedGustMPH,Humidity,HourlyPrecipIn,Conditions,Clouds,dailyrainin,SolarRadiationWatts/m^2,SoftwareType,DateUTC
2013-08-29 00:01:00,77.5,74.3,29.90,ESE,106,4.0,6.0,90,0.00,,---,0.00,0.00,VWS V14.01,2013-08-29 05:01:00,
2013-08-29 00:06:00,77.4,74.6,29.90,ESE,114,5.0,6.0,91,0.00,,---,0.00,0.00,VWS V14.01,2013-08-29 05:06:00,
2013-08-29 00:11:00,77.4,74.6,29.90,ESE,119,6.0,7.0,91,0.00,,---,0.00,0.00,VWS V14.01,2013-08-29 05:11:00,
2013-08-29 00:16:00,77.3,74.5,29.91,ESE,120,6.0,7.0,91,0.00,,---,0.00,0.00,VWS V14.01,2013-08-29 05:16:00,
2013-08-29 00:21:00,77.3,74.8,29.91,ESE,121,6.0,6.0,92,0.00,,---,0.00,0.00,VWS V14.01,2013-08-29 05:21:00,
2013-08-29 00:26:00,77.4,74.9,29.91,SE,125,4.0,9.0,92,0.00,,---,0.00,0.00,VWS V14.01,2013-08-29 05:26:00,
2013-08-29 00:31:00,77.4,74.9,29.91,SE,130,4.0,9.0,92,0.00,,---,0.00,0.00,VWS V14.01,2013-08-29 05:31:00,
2013-08-29 00:36:00,77.5,75.3,29.91,SE,134,3.0,7.0,93,0.00,,---,0.00,0.00,VWS V14.01,2013-08-29 05:36:00,
2013-08-29 00:41:00,77.6,75.4,29.91,SE,134,4.0,10.0,93,0.00,,---,0.00,0.00,VWS V14.01,2013-08-29 05:41:00,
2013-08-29 00:46:00,77.7,75.5,29.91,SE,134,5.0,10.0,93,0.00,,---,0.00,0.00,VWS V14.01,2013-08-29 05:46:00,
2013-08-29 00:51:00,77.8,75.6,29.91,SE,134,4.0,9.0,93,0.00,,---,0.00,0.00,VWS V14.01,2013-08-29 05:51:00,
2013-08-29 00:56:00,78.0,76.1,29.91,SE,137,5.0,9.0,94,0.00,,---,0.00,0.00,VWS V14.01,2013-08-29 05:56:00,
2013-08-29 01:01:00,78.3,76.4,29.91,SE,142,7.0,10.0,94,0.00,,---,0.00,0.00,VWS V14.01,2013-08-29 06:01:00,
2013-08-29 01:06:00,78.4,76.5,29.91,SE,138,6.0,10.0,94,0.00,,---,0.00,0.00,VWS V14.01,2013-08-29 06:06:00,
2013-08-29 01:11:00,78.5,76.6,29.91,SE,139,5.0,10.0,94,0.00,,---,0.00,0.00,VWS V14.01,2013-08-29 06:11:00,
2013-08-29 01:16:00,78.5,76.6,29.91,SE,140,4.0,10.0,94,0.00,,---,0.00,0.00,VWS V14.01,2013-08-29 06:16:00,
2013-08-29 01:21:00,78.6,76.7,29.91,SE,144,5.0,9.0,94,0.00,,---,0.00,0.00,VWS V14.01,2013-08-29 06:21:00,
2013-08-29 01:26:00,78.7,76.8,29.91,SE,141,5.0,10.0,94,0.00,,---,0.00,0.00,VWS V14.01,2013-08-29 06:26:00,
2013-08-29 01:31:00,78.7,76.8,29.90,SE,145,7.0,10.0,94,0.00,,---,0.00,0.00,VWS V14.01,2013-08-29 06:31:00,
2013-08-29 01:36:00,78.6,76.7,29.91,SSE,148,7.0,9.0,94,0.00,,---,0.00,0.00,VWS V14.01,2013-08-29 06:36:00,
2013-08-29 01:41:00,78.6,76.7,29.91,SE,142,10.0,12.0,94,0.00,,---,0.00,0.00,VWS V14.01,2013-08-29 06:41:00,
2013-08-29 01:46:00,78.6,76.7,29.91,SSE,149,9.0,12.0,94,0.00,,---,0.00,0.00,VWS V14.01,2013-08-29 06:46:00,
2013-08-29 01:51:00,78.7,76.8,29.91,SSE,152,7.0,12.0,94,0.00,,---,0.00,0.00,VWS V14.01,2013-08-29 06:51:00,
2013-08-29 01:56:00,78.7,76.8,29.91,SSE,156,5.0,12.0,94,0.00,,---,0.00,0.00,VWS V14.01,2013-08-29 06:56:00,
2013-08-29 02:01:00,78.7,77.2,29.90,SSE,150,7.0,12.0,95,0.00,,---,0.00,0.00,VWS V14.01,2013-08-29 07:01:00,
2013-08-29 02:06:00,78.7,77.2,29.91,SSE,153,5.0,8.0,95,0.00,,---,0.00,0.00,VWS V14.01,2013-08-29 07:06:00,
2013-08-29 02:11:00,78.7,77.2,29.91,SSE,150,5.0,9.0,95,0.00,,---,0.00,0.00,VWS V14.01,2013-08-29 07:11:00,
2013-08-29 02:16:00,78.7,77.2,29.91,SSE,157,6.0,9.0,95,0.00,,---,0.00,0.00,VWS V14.01,2013-08-29 07:16:00,
2013-08-29 02:21:00,78.7,77.2,29.91,SSE,159,5.0,9.0,95,0.00,,---,0.00,0.00,VWS V14.01,2013-08-29 07:21:00,
2013-08-29 02:26:00,78.7,77.2,29.91,SSE,159,5.0,11.0,95,0.00,,---,0.00,0.00,VWS V14.01,2013-08-29 07:26:00,
2013-08-29 02:31:00,78.7,77.2,29.90,SSE,158,4.0,11.0,95,0.00,,---,0.00,0.00,VWS V14.01,2013-08-29 07:31:00,
2013-08-29 02:36:00,78.7,77.2,29.91,SSE,158,0.0,3.0,95,0.00,,---,0.00,0.00,VWS V14.01,2013-08-29 07:36:00,
2013-08-29 02:41:00,78.6,77.1,29.90,SSE,157,0.0,3.0,95,0.00,,---,0.00,0.00,VWS V14.01,2013-08-29 07:41:00,
2013-08-29 02:46:00,78.5,76.9,29.90,SSE,157,0.0,3.0,95,0.00,,---,0.00,0.00,VWS V14.01,2013-08-29 07:46:00,
2013-08-29 02:51:00,78.4,76.8,29.90,SSE,157,0.0,0.0,95,0.00,,---,0.00,0.00,VWS V14.01,2013-08-29 07:51:00,
2013-08-29 02:56:00,78.4,76.8,29.90,SSE,157,0.0,0.0,95,0.00,,---,0.00,0.00,VWS V14.01,2013-08-29 07:56:00,
2013-08-29 03:01:00,78.3,76.8,29.90,SSE,157,0.0,0.0,95,0.00,,---,0.00,0.00,VWS V14.01,2013-08-29 08:01:00,
2013-08-29 03:06:00,78.2,76.7,29.90,SSE,157,0.0,0.0,95,0.00,,---,0.00,0.00,VWS V14.01,2013-08-29 08:06:00,
2013-08-29 03:11:00,78.1,76.6,29.90,SSE,157,0.0,0.0,95,0.00,,---,0.00,0.00,VWS V14.01,2013-08-29 08:11:00,
2013-08-29 03:16:00,78.0,76.5,29.90,SSE,157,0.0,0.0,95,0.00,,---,0.00,0.00,VWS V14.01,2013-08-29 08:16:00,
2013-08-29 03:21:00,78.1,76.6,29.90,SSE,157,0.0,0.0,95,0.00,,---,0.00,0.00,VWS V14.01,2013-08-29 08:21:00,
2013-08-29 03:26:00,78.0,76.5,29.90,SSE,157,0.0,0.0,95,0.00,,---,0.00,0.00,VWS V14.01,2013-08-29 08:26:00,
2013-08-29 03:31:00,78.0,76.5,29.90,SSE,157,0.0,0.0,95,0.00,,---,0.00,0.00,VWS V14.01,2013-08-29 08:31:00,
2013-08-29 03:36:00,77.9,76.4,29.90,SSE,157,0.0,0.0,95,0.00,,---,0.00,0.00,VWS V14.01,2013-08-29 08:36:00,
2013-08-29 03:41:00,77.8,76.3,29.90,SSE,157,0.0,0.0,95,0.00,,---,0.00,0.00,VWS V14.01,2013-08-29 08:41:00,
2013-08-29 03:46:00,77.6,76.1,29.89,SSE,157,0.0,0.0,95,0.00,,---,0.00,0.00,VWS V14.01,2013-08-29 08:46:00,
2013-08-29 03:51:00,77.5,76.0,29.89,SSE,157,0.0,0.0,95,0.00,,---,0.00,0.00,VWS V14.01,2013-08-29 08:51:00,
2013-08-29 03:56:00,77.4,75.9,29.90,SSE,157,0.0,0.0,95,0.00,,---,0.00,0.00,VWS V14.01,2013-08-29 08:56:00,
2013-08-29 04:01:00,77.1,75.6,29.89,SSE,158,0.0,0.0,95,0.00,,---,0.00,0.00,VWS V14.01,2013-08-29 09:01:00,
2013-08-29 04:06:00,76.9,75.4,29.89,SSE,158,0.0,0.0,95,0.00,,---,0.00,0.00,VWS V14.01,2013-08-29 09:06:00,
2013-08-29 04:11:00,76.7,74.8,29.89,SSE,157,0.0,0.0,94,0.00,,---,0.00,0.00,VWS V14.01,2013-08-29 09:11:00,
2013-08-29 04:16:00,76.6,74.8,29.90,SSE,158,0.0,0.0,94,0.00,,---,0.00,0.00,VWS V14.01,2013-08-29 09:16:00,
2013-08-29 04:21:00,76.5,74.7,29.89,SSE,157,0.0,0.0,94,0.00,,---,0.00,0.00,VWS V14.01,2013-08-29 09:21:00,
2013-08-29 04:26:00,76.3,74.1,29.89,SSE,158,0.0,0.0,93,0.00,,---,0.00,0.00,VWS V14.01,2013-08-29 09:26:00,
2013-08-29 04:31:00,76.2,74.0,29.89,SSE,158,0.0,0.0,93,0.00,,---,0.00,0.00,VWS V14.01,2013-08-29 09:31:00,
2013-08-29 04:36:00,76.0,73.5,29.89,SSE,158,0.0,0.0,92,0.00,,---,0.00,0.00,VWS V14.01,2013-08-29 09:36:00,
2013-08-29 04:41:00,75.8,73.0,29.89,SSE,157,0.0,0.0,91,0.00,,---,0.00,0.00,VWS V14.01,2013-08-29 09:41:00,
2013-08-29 04:46:00,75.6,72.5,29.89,SSE,158,0.0,0.0,90,0.00,,---,0.00,0.00,VWS V14.01,2013-08-29 09:46:00,
2013-08-29 04:51:00,75.5,72.4,29.89,SSE,158,0.0,0.0,90,0.00,,---,0.00,0.00,VWS V14.01,2013-08-29 09:51:00,
2013-08-29 04:56:00,75.3,72.2,29.88,SSE,158,0.0,0.0,90,0.00,,---,0.00,0.00,VWS V14.01,2013-08-29 09:56:00,
2013-08-29 05:01:00,75.1,71.6,29.88,SSE,157,0.0,0.0,89,0.00,,---,0.00,0.00,VWS V14.01,2013-08-29 10:01:00,
2013-08-29 05:06:00,75.0,71.9,29.88,SSE,158,0.0,0.0,90,0.00,,---,0.00,0.00,VWS V14.01,2013-08-29 10:06:00,
2013-08-29 05:11:00,74.9,71.4,29.88,SSE,158,0.0,0.0,89,0.00,,---,0.00,0.00,VWS V14.01,2013-08-29 10:11:00,
2013-08-29 05:16:00,74.8,71.3,29.88,SSE,157,0.0,0.0,89,0.00,,---,0.00,0.00,VWS V14.01,2013-08-29 10:16:00,
2013-08-29 05:21:00,74.7,70.9,29.88,SSE,158,0.0,0.0,88,0.00,,---,0.00,0.00,VWS V14.01,2013-08-29 10:21:00,
2013-08-29 05:26:00,74.5,70.7,29.88,SSE,157,0.0,0.0,88,0.00,,---,0.00,0.00,VWS V14.01,2013-08-29 10:26:00,
2013-08-29 05:31:00,74.3,70.5,29.88,SSE,158,0.0,0.0,88,0.00,,---,0.00,0.00,VWS V14.01,2013-08-29 10:31:00,
2013-08-29 05:36:00,74.2,70.4,29.89,SSE,157,0.0,0.0,88,0.00,,---,0.00,0.00,VWS V14.01,2013-08-29 10:36:00,
2013-08-29 05:41:00,74.0,70.2,29.89,SSE,158,0.0,0.0,88,0.00,,---,0.00,0.00,VWS V14.01,2013-08-29 10:41:00,
2013-08-29 05:46:00,73.8,70.0,29.89,SSE,158,0.0,0.0,88,0.00,,---,0.00,0.00,VWS V14.01,2013-08-29 10:46:00,
2013-08-29 05:51:00,73.7,69.9,29.89,SSE,158,0.0,0.0,88,0.00,,---,0.00,0.00,VWS V14.01,2013-08-29 10:51:00,
2013-08-29 05:56:00,73.5,69.7,29.89,SSE,158,0.0,0.0,88,0.00,,---,0.00,0.00,VWS V14.01,2013-08-29 10:56:00,
2013-08-29 06:01:00,73.3,69.5,29.89,SSE,157,0.0,0.0,88,0.00,,---,0.00,0.00,VWS V14.01,2013-08-29 11:01:00,
2013-08-29 06:06:00,73.1,69.3,29.89,SSE,157,0.0,0.0,88,0.00,,---,0.00,0.00,VWS V14.01,2013-08-29 11:06:00,
2013-08-29 06:11:00,72.9,69.5,29.89,SSE,157,0.0,0.0,89,0.00,,---,0.00,0.00,VWS V14.01,2013-08-29 11:11:00,
2013-08-29 06:16:00,72.8,69.4,29.90,SSE,158,0.0,0.0,89,0.00,,---,0.00,0.00,VWS V14.01,2013-08-29 11:16:00,
2013-08-29 06:21:00,72.7,69.3,29.90,SSE,157,0.0,0.0,89,0.00,,---,0.00,0.00,VWS V14.01,2013-08-29 11:21:00,
2013-08-29 06:26:00,72.7,69.3,29.90,SSE,157,0.0,0.0,89,0.00,,---,0.00,0.00,VWS V14.01,2013-08-29 11:26:00,
2013-08-29 06:31:00,72.6,69.2,29.90,SSE,157,0.0,0.0,89,0.00,,---,0.00,0.00,VWS V14.01,2013-08-29 11:31:00,
2013-08-29 06:36:00,72.6,69.2,29.90,SSE,158,0.0,0.0,89,0.00,,---,0.00,0.00,VWS V14.01,2013-08-29 11:36:00,
2013-08-29 06:41:00,72.5,69.1,29.90,SSE,157,0.0,0.0,89,0.00,,---,0.00,0.00,VWS V14.01,2013-08-29 11:41:00,
2013-08-29 06:46:00,72.4,69.0,29.90,SSE,156,0.0,0.0,89,0.00,,---,0.00,0.00,VWS V14.01,2013-08-29 11:46:00,
2013-08-29 06:51:00,72.4,69.0,29.90,SSE,156,0.0,0.0,89,0.00,,---,0.00,5.00,VWS V14.01,2013-08-29 11:51:00,
2013-08-29 06:56:00,72.3,68.9,29.91,SSE,157,0.0,0.0,89,0.00,,---,0.00,9.00,VWS V14.01,2013-08-29 11:56:00,
2013-08-29 07:01:00,72.3,69.2,29.91,SSE,157,0.0,0.0,90,0.00,,---,0.00,16.00,VWS V14.01,2013-08-29 12:01:00,
2013-08-29 07:06:00,72.3,69.2,29.91,SSE,156,0.0,0.0,90,0.00,,---,0.00,23.00,VWS V14.01,2013-08-29 12:06:00,
2013-08-29 07:11:00,72.3,69.2,29.91,SSE,157,0.0,0.0,90,0.00,,---,0.00,39.00,VWS V14.01,2013-08-29 12:11:00,
2013-08-29 07:16:00,72.4,69.6,29.91,SSE,156,0.0,0.0,91,0.00,,---,0.00,47.00,VWS V14.01,2013-08-29 12:16:00,
2013-08-29 07:21:00,72.5,69.7,29.91,SSE,157,0.0,0.0,91,0.00,,---,0.00,54.00,VWS V14.01,2013-08-29 12:21:00,
2013-08-29 07:26:00,72.7,70.2,29.92,SSE,156,0.0,0.0,92,0.00,,---,0.00,70.00,VWS V14.01,2013-08-29 12:26:00,
2013-08-29 07:31:00,73.0,70.5,29.92,SSE,156,0.0,0.0,92,0.00,,---,0.00,84.00,VWS V14.01,2013-08-29 12:31:00,
2013-08-29 07:36:00,73.3,71.2,29.92,SSE,156,0.0,0.0,93,0.00,,---,0.00,97.00,VWS V14.01,2013-08-29 12:36:00,
2013-08-29 07:41:00,73.6,71.5,29.92,SSE,157,0.0,0.0,93,0.00,,---,0.00,111.00,VWS V14.01,2013-08-29 12:41:00,
2013-08-29 07:46:00,73.7,71.6,29.92,SSE,157,5.0,6.0,93,0.00,,---,0.00,121.00,VWS V14.01,2013-08-29 12:46:00,
2013-08-29 07:51:00,73.9,71.4,29.92,SSE,157,3.0,6.0,92,0.00,,---,0.00,135.00,VWS V14.01,2013-08-29 12:51:00,
2013-08-29 07:56:00,74.0,71.5,29.92,SSE,157,4.0,6.0,92,0.00,,---,0.00,149.00,VWS V14.01,2013-08-29 12:56:00,
2013-08-29 08:01:00,74.1,71.3,29.92,SSE,158,5.0,7.0,91,0.00,,---,0.00,163.00,VWS V14.01,2013-08-29 13:01:00,
2013-08-29 08:06:00,74.3,71.5,29.92,SSE,161,5.0,7.0,91,0.00,,---,0.00,179.00,VWS V14.01,2013-08-29 13:06:00,
2013-08-29 08:11:00,74.6,71.8,29.92,SSE,161,4.0,7.0,91,0.00,,---,0.00,193.00,VWS V14.01,2013-08-29 13:11:00,
2013-08-29 08:16:00,74.8,71.7,29.92,SSE,161,4.0,7.0,90,0.00,,---,0.00,207.00,VWS V14.01,2013-08-29 13:16:00,
2013-08-29 08:21:00,74.9,71.1,29.91,South,171,4.0,9.0,88,0.00,,---,0.00,221.00,VWS V14.01,2013-08-29 13:21:00,
2013-08-29 08:26:00,75.1,71.0,29.92,South,169,4.0,9.0,87,0.00,,---,0.00,237.00,VWS V14.01,2013-08-29 13:26:00,
2013-08-29 08:31:00,75.3,71.2,29.92,South,173,5.0,9.0,87,0.00,,---,0.00,255.00,VWS V14.01,2013-08-29 13:31:00,
2013-08-29 08:36:00,75.6,71.1,29.91,SSE,165,5.0,6.0,86,0.00,,---,0.00,271.00,VWS V14.01,2013-08-29 13:36:00,
2013-08-29 08:41:00,75.8,71.3,29.91,SSE,162,6.0,7.0,86,0.00,,---,0.00,287.00,VWS V14.01,2013-08-29 13:41:00,
2013-08-29 08:46:00,76.0,70.8,29.90,SSE,163,7.0,11.0,84,0.00,,---,0.00,301.00,VWS V14.01,2013-08-29 13:46:00,
2013-08-29 08:51:00,76.1,71.3,29.90,SSE,159,8.0,10.0,85,0.00,,---,0.00,318.00,VWS V14.01,2013-08-29 13:51:00,
2013-08-29 08:56:00,76.2,71.0,29.90,SSE,150,9.0,14.0,84,0.00,,---,0.00,334.00,VWS V14.01,2013-08-29 13:56:00,
2013-08-29 09:01:00,76.4,70.9,29.90,SSE,157,8.0,14.0,83,0.00,,---,0.00,350.00,VWS V14.01,2013-08-29 14:01:00,
2013-08-29 09:06:00,76.7,71.2,29.89,SSE,167,5.0,9.0,83,0.00,,---,0.00,367.00,VWS V14.01,2013-08-29 14:06:00,
2013-08-29 09:11:00,77.1,71.5,29.89,South,169,6.0,12.0,83,0.00,,---,0.00,380.00,VWS V14.01,2013-08-29 14:11:00,
2013-08-29 09:16:00,77.5,71.9,29.90,South,182,9.0,12.0,83,0.00,,---,0.00,396.00,VWS V14.01,2013-08-29 14:16:00,
2013-08-29 09:21:00,77.9,72.0,29.90,South,173,6.0,10.0,82,0.00,,---,0.00,411.00,VWS V14.01,2013-08-29 14:21:00,
2013-08-29 09:26:00,78.2,71.5,29.90,South,176,9.0,13.0,80,0.00,,---,0.00,427.00,VWS V14.01,2013-08-29 14:26:00,
2013-08-29 09:31:00,78.5,71.8,29.90,SSE,166,6.0,13.0,80,0.00,,---,0.00,441.00,VWS V14.01,2013-08-29 14:31:00,
2013-08-29 09:36:00,78.7,71.6,29.90,SSE,164,7.0,10.0,79,0.00,,---,0.00,459.00,VWS V14.01,2013-08-29 14:36:00,
2013-08-29 09:41:00,79.2,72.5,29.90,South,170,6.0,11.0,80,0.00,,---,0.00,475.00,VWS V14.01,2013-08-29 14:41:00,
2013-08-29 09:46:00,79.6,72.1,29.90,South,176,7.0,13.0,78,0.00,,---,0.00,485.00,VWS V14.01,2013-08-29 14:46:00,
2013-08-29 09:51:00,79.7,71.9,29.90,South,169,3.0,9.0,77,0.00,,---,0.00,499.00,VWS V14.01,2013-08-29 14:51:00,
2013-08-29 09:55:00,80.1,72.2,29.90,South,182,3.0,9.0,77,0.00,,---,0.00,513.00,VWS V14.01,2013-08-29 14:55:00,
2013-08-29 10:00:00,80.5,72.6,29.90,SSE,163,7.0,9.0,77,0.00,,---,0.00,524.00,VWS V14.01,2013-08-29 15:00:00,
2013-08-29 10:05:00,80.9,73.0,29.90,South,170,8.0,9.0,77,0.00,,---,0.00,543.00,VWS V14.01,2013-08-29 15:05:00,
2013-08-29 10:10:00,81.2,73.3,29.90,SSE,163,9.0,9.0,77,0.00,,---,0.00,555.00,VWS V14.01,2013-08-29 15:10:00,
2013-08-29 10:15:00,81.4,73.1,29.90,SSE,162,7.0,10.0,76,0.00,,---,0.00,571.00,VWS V14.01,2013-08-29 15:15:00,
2013-08-29 10:20:00,81.6,72.9,29.90,SSE,161,5.0,11.0,75,0.00,,---,0.00,585.00,VWS V14.01,2013-08-29 15:20:00,
2013-08-29 10:25:00,82.0,72.9,29.90,SSE,163,6.0,11.0,74,0.00,,---,0.00,598.00,VWS V14.01,2013-08-29 15:25:00,
2013-08-29 10:30:00,82.3,73.6,29.90,SSE,159,6.0,11.0,75,0.00,,---,0.00,612.00,VWS V14.01,2013-08-29 15:30:00,
2013-08-29 10:35:00,82.8,74.1,29.90,SSE,167,5.0,7.0,75,0.00,,---,0.00,626.00,VWS V14.01,2013-08-29 15:35:00,
2013-08-29 10:40:00,83.0,73.5,29.90,South,184,5.0,10.0,73,0.00,,---,0.00,636.00,VWS V14.01,2013-08-29 15:40:00,
2013-08-29 10:45:00,83.4,73.8,29.90,South,177,6.0,10.0,73,0.00,,---,0.00,654.00,VWS V14.01,2013-08-29 15:45:00,
2013-08-29 10:51:00,83.7,74.5,29.90,South,174,7.0,10.0,74,0.00,,---,0.00,668.00,VWS V14.01,2013-08-29 15:51:00,
2013-08-29 10:56:00,84.0,73.6,29.90,South,176,6.0,10.0,71,0.00,,---,0.00,675.00,VWS V14.01,2013-08-29 15:56:00,
2013-08-29 11:01:00,84.3,74.7,29.90,South,169,8.0,10.0,73,0.00,,---,0.00,689.00,VWS V14.01,2013-08-29 16:01:00,
2013-08-29 11:06:00,84.5,73.2,29.90,South,178,9.0,9.0,69,0.00,,---,0.00,705.00,VWS V14.01,2013-08-29 16:06:00,
2013-08-29 11:11:00,84.9,74.4,29.90,SSE,156,9.0,10.0,71,0.00,,---,0.00,731.00,VWS V14.01,2013-08-29 16:11:00,
2013-08-29 11:16:00,85.2,73.9,29.90,South,173,9.0,11.0,69,0.00,,---,0.00,759.00,VWS V14.01,2013-08-29 16:16:00,
2013-08-29 11:21:00,85.4,73.2,29.90,SSE,168,6.0,12.0,67,0.00,,---,0.00,759.00,VWS V14.01,2013-08-29 16:21:00,
2013-08-29 11:26:00,85.7,75.2,29.89,SSE,161,5.0,12.0,71,0.00,,---,0.00,786.00,VWS V14.01,2013-08-29 16:26:00,
2013-08-29 11:31:00,85.6,73.8,29.90,SSE,162,10.0,12.0,68,0.00,,---,0.00,763.00,VWS V14.01,2013-08-29 16:31:00,
2013-08-29 11:36:00,85.9,74.1,29.90,SSW,192,11.0,11.0,68,0.00,,---,0.00,758.00,VWS V14.01,2013-08-29 16:36:00,
2013-08-29 11:41:00,86.4,74.2,29.90,South,180,9.0,12.0,67,0.00,,---,0.00,765.00,VWS V14.01,2013-08-29 16:41:00,
2013-08-29 11:46:00,86.6,75.2,29.89,South,177,9.0,12.0,69,0.00,,---,0.00,780.00,VWS V14.01,2013-08-29 16:46:00,
2013-08-29 11:51:00,87.0,74.7,29.89,South,181,9.0,11.0,67,0.00,,---,0.00,789.00,VWS V14.01,2013-08-29 16:51:00,
2013-08-29 11:56:00,87.4,74.7,29.89,SSE,155,7.0,11.0,66,0.00,,---,0.00,798.00,VWS V14.01,2013-08-29 16:56:00,
2013-08-29 12:01:00,87.5,75.2,29.89,South,179,11.0,14.0,67,0.00,,---,0.00,800.00,VWS V14.01,2013-08-29 17:01:00,
2013-08-29 12:06:00,87.9,75.1,29.89,South,182,10.0,11.0,66,0.00,,---,0.00,800.00,VWS V14.01,2013-08-29 17:06:00,
2013-08-29 12:11:00,88.3,76.0,29.89,South,184,9.0,13.0,67,0.00,,---,0.00,812.00,VWS V14.01,2013-08-29 17:11:00,
2013-08-29 12:16:00,88.5,72.8,29.89,South,190,5.0,13.0,60,0.00,,---,0.00,821.00,VWS V14.01,2013-08-29 17:16:00,
2013-08-29 12:21:00,88.5,74.3,29.88,South,182,3.0,13.0,63,0.00,,---,0.00,842.00,VWS V14.01,2013-08-29 17:21:00,
2013-08-29 12:26:00,88.8,74.1,29.88,South,182,12.0,14.0,62,0.00,,---,0.00,849.00,VWS V14.01,2013-08-29 17:26:00,
2013-08-29 12:31:00,88.9,75.2,29.88,SSW,200,9.0,14.0,64,0.00,,---,0.00,824.00,VWS V14.01,2013-08-29 17:31:00,
2013-08-29 12:36:00,88.9,73.2,29.88,SSW,203,13.0,15.0,60,0.00,,---,0.00,823.00,VWS V14.01,2013-08-29 17:36:00,
2013-08-29 12:41:00,88.9,73.2,29.88,South,186,13.0,16.0,60,0.00,,---,0.00,828.00,VWS V14.01,2013-08-29 17:41:00,
2013-08-29 12:46:00,89.0,72.8,29.88,South,186,13.0,16.0,59,0.00,,---,0.00,835.00,VWS V14.01,2013-08-29 17:46:00,
2013-08-29 12:51:00,89.2,73.5,29.88,SSW,195,11.0,16.0,60,0.00,,---,0.00,847.00,VWS V14.01,2013-08-29 17:51:00,
2013-08-29 12:56:00,89.3,74.6,29.87,South,169,13.0,19.0,62,0.00,,---,0.00,851.00,VWS V14.01,2013-08-29 17:56:00,
2013-08-29 13:01:00,89.4,74.7,29.87,South,179,7.0,19.0,62,0.00,,---,0.00,846.00,VWS V14.01,2013-08-29 18:01:00,
2013-08-29 13:06:00,89.5,73.3,29.87,South,177,14.0,17.0,59,0.00,,---,0.00,854.00,VWS V14.01,2013-08-29 18:06:00,
2013-08-29 13:11:00,89.4,72.2,29.86,SSW,194,14.0,18.0,57,0.00,,---,0.00,853.00,VWS V14.01,2013-08-29 18:11:00,
2013-08-29 13:16:00,89.3,72.6,29.86,South,184,12.0,18.0,58,0.00,,---,0.00,840.00,VWS V14.01,2013-08-29 18:16:00,
2013-08-29 13:21:00,89.4,72.2,29.86,South,185,11.0,17.0,57,0.00,,---,0.00,837.00,VWS V14.01,2013-08-29 18:21:00,
2013-08-29 13:26:00,89.3,72.1,29.86,SSE,163,9.0,17.0,57,0.00,,---,0.00,844.00,VWS V14.01,2013-08-29 18:26:00,
2013-08-29 13:31:00,89.4,72.7,29.86,SSW,207,10.0,17.0,58,0.00,,---,0.00,838.00,VWS V14.01,2013-08-29 18:31:00,
2013-08-29 13:36:00,89.6,72.4,29.86,South,177,6.0,12.0,57,0.00,,---,0.00,835.00,VWS V14.01,2013-08-29 18:36:00,
2013-08-29 13:41:00,89.9,72.6,29.86,South,180,12.0,20.0,57,0.00,,---,0.00,830.00,VWS V14.01,2013-08-29 18:41:00,
2013-08-29 13:46:00,89.8,72.6,29.86,South,189,5.0,20.0,57,0.00,,---,0.00,833.00,VWS V14.01,2013-08-29 18:46:00,
2013-08-29 13:51:00,89.8,72.0,29.86,SSE,155,12.0,12.0,56,0.00,,---,0.00,823.00,VWS V14.01,2013-08-29 18:51:00,
2013-08-29 13:56:00,89.7,71.4,29.85,South,179,14.0,19.0,55,0.00,,---,0.00,826.00,VWS V14.01,2013-08-29 18:56:00,
2013-08-29 14:01:00,89.6,71.8,29.85,SSW,209,15.0,19.0,56,0.00,,---,0.00,823.00,VWS V14.01,2013-08-29 19:01:00,
2013-08-29 14:06:00,90.1,73.3,29.85,South,189,9.0,14.0,58,0.00,,---,0.00,817.00,VWS V14.01,2013-08-29 19:06:00,
2013-08-29 14:11:00,89.9,72.1,29.85,South,186,5.0,17.0,56,0.00,,---,0.00,812.00,VWS V14.01,2013-08-29 19:11:00,
2013-08-29 14:16:00,90.0,71.1,29.85,SSE,164,13.0,17.0,54,0.00,,---,0.00,809.00,VWS V14.01,2013-08-29 19:16:00,
2013-08-29 14:21:00,89.8,72.6,29.85,SSE,158,10.0,13.0,57,0.00,,---,0.00,809.00,VWS V14.01,2013-08-29 19:21:00,
2013-08-29 14:26:00,89.8,72.0,29.85,South,175,6.0,15.0,56,0.00,,---,0.00,809.00,VWS V14.01,2013-08-29 19:26:00,
2013-08-29 14:31:00,90.0,72.2,29.84,SSE,167,13.0,15.0,56,0.00,,---,0.00,800.00,VWS V14.01,2013-08-29 19:31:00,
2013-08-29 14:36:00,89.9,70.5,29.84,SSE,159,13.0,16.0,53,0.00,,---,0.00,796.00,VWS V14.01,2013-08-29 19:36:00,
2013-08-29 14:41:00,89.8,70.9,29.84,SSW,192,12.0,16.0,54,0.00,,---,0.00,795.00,VWS V14.01,2013-08-29 19:41:00,
2013-08-29 14:46:00,90.5,71.1,29.84,South,184,15.0,18.0,53,0.00,,---,0.00,784.00,VWS V14.01,2013-08-29 19:46:00,
2013-08-29 14:51:00,90.4,70.9,29.84,SSE,162,10.0,16.0,53,0.00,,---,0.00,780.00,VWS V14.01,2013-08-29 19:51:00,
2013-08-29 14:56:00,90.2,71.3,29.84,SSE,161,10.0,18.0,54,0.00,,---,0.00,780.00,VWS V14.01,2013-08-29 19:56:00,
2013-08-29 15:01:00,90.1,70.7,29.84,South,169,9.0,18.0,53,0.00,,---,0.00,780.00,VWS V14.01,2013-08-29 20:01:00,
2013-08-29 15:06:00,89.9,72.1,29.84,South,178,11.0,15.0,56,0.00,,---,0.00,779.00,VWS V14.01,2013-08-29 20:06:00,
2013-08-29 15:11:00,90.2,72.4,29.84,SSW,196,15.0,15.0,56,0.00,,---,0.00,707.00,VWS V14.01,2013-08-29 20:11:00,
2013-08-29 15:16:00,90.6,72.2,29.84,South,180,16.0,20.0,55,0.00,,---,0.00,698.00,VWS V14.01,2013-08-29 20:16:00,
2013-08-29 15:20:00,90.4,72.6,29.83,South,187,10.0,15.0,56,0.00,,---,0.00,835.00,VWS V14.01,2013-08-29 20:20:00,
2013-08-29 15:25:00,90.6,72.2,29.83,SSW,195,14.0,19.0,55,0.00,,---,0.00,812.00,VWS V14.01,2013-08-29 20:25:00,
2013-08-29 15:30:00,90.8,71.9,29.83,South,178,12.0,19.0,54,0.00,,---,0.00,793.00,VWS V14.01,2013-08-29 20:30:00,
2013-08-29 15:35:00,90.6,71.1,29.83,South,173,16.0,18.0,53,0.00,,---,0.00,807.00,VWS V14.01,2013-08-29 20:35:00,
2013-08-29 15:40:00,90.7,72.3,29.83,South,180,14.0,18.0,55,0.00,,---,0.00,860.00,VWS V14.01,2013-08-29 20:40:00,
2013-08-29 15:45:00,91.0,71.5,29.83,South,186,14.0,19.0,53,0.00,,---,0.00,856.00,VWS V14.01,2013-08-29 20:45:00,
2013-08-29 15:50:00,91.0,71.5,29.82,SSW,196,12.0,17.0,53,0.00,,---,0.00,592.00,VWS V14.01,2013-08-29 20:50:00,
2013-08-29 15:55:00,90.6,71.7,29.82,South,173,13.0,17.0,54,0.00,,---,0.00,599.00,VWS V14.01,2013-08-29 20:55:00,
2013-08-29 16:00:00,90.3,70.3,29.82,SSE,147,12.0,18.0,52,0.00,,---,0.00,640.00,VWS V14.01,2013-08-29 21:00:00,
2013-08-29 16:05:00,90.3,70.3,29.82,South,183,17.0,20.0,52,0.00,,---,0.00,652.00,VWS V14.01,2013-08-29 21:05:00,
2013-08-29 16:10:00,90.5,71.1,29.82,South,181,13.0,20.0,53,0.00,,---,0.00,633.00,VWS V14.01,2013-08-29 21:10:00,
2013-08-29 16:15:00,90.4,70.4,29.82,South,169,11.0,20.0,52,0.00,,---,0.00,622.00,VWS V14.01,2013-08-29 21:15:00,
2013-08-29 16:20:00,90.4,71.5,29.82,SSW,197,16.0,16.0,54,0.00,,---,0.00,605.00,VWS V14.01,2013-08-29 21:20:00,
2013-08-29 16:25:00,90.4,70.9,29.82,SE,146,13.0,19.0,53,0.00,,---,0.00,598.00,VWS V14.01,2013-08-29 21:25:00,
2013-08-29 16:30:00,90.2,71.3,29.81,SSE,151,11.0,19.0,54,0.00,,---,0.00,599.00,VWS V14.01,2013-08-29 21:30:00,
2013-08-29 16:35:00,90.1,71.8,29.81,SSE,167,13.0,14.0,55,0.00,,---,0.00,589.00,VWS V14.01,2013-08-29 21:35:00,
2013-08-29 16:40:00,89.9,70.5,29.81,South,179,12.0,18.0,53,0.00,,---,0.00,594.00,VWS V14.01,2013-08-29 21:40:00,
2013-08-29 16:45:00,89.9,71.6,29.81,South,175,14.0,20.0,55,0.00,,---,0.00,573.00,VWS V14.01,2013-08-29 21:45:00,
2013-08-29 16:50:00,89.9,71.6,29.81,South,186,10.0,16.0,55,0.00,,---,0.00,540.00,VWS V14.01,2013-08-29 21:50:00,
2013-08-29 16:55:00,90.1,72.3,29.81,South,182,18.0,22.0,56,0.00,,---,0.00,519.00,VWS V14.01,2013-08-29 21:55:00,
2013-08-29 17:00:00,90.0,71.1,29.81,South,183,11.0,22.0,54,0.00,,---,0.00,504.00,VWS V14.01,2013-08-29 22:00:00,
2013-08-29 17:05:00,89.9,72.1,29.80,South,183,13.0,17.0,56,0.00,,---,0.00,490.00,VWS V14.01,2013-08-29 22:05:00,
2013-08-29 17:10:00,90.0,71.7,29.80,SSW,204,13.0,18.0,55,0.00,,---,0.00,469.00,VWS V14.01,2013-08-29 22:10:00,
2013-08-29 17:15:00,89.8,71.5,29.80,SSW,196,18.0,18.0,55,0.00,,---,0.00,457.00,VWS V14.01,2013-08-29 22:15:00,
2013-08-29 17:20:00,89.7,70.9,29.80,South,187,16.0,18.0,54,0.00,,---,0.00,281.00,VWS V14.01,2013-08-29 22:20:00,
2013-08-29 17:25:00,89.4,71.1,29.80,South,183,10.0,20.0,55,0.00,,---,0.00,325.00,VWS V14.01,2013-08-29 22:25:00,
2013-08-29 17:30:00,89.4,68.9,29.80,South,177,11.0,20.0,51,0.00,,---,0.00,427.00,VWS V14.01,2013-08-29 22:30:00,
2013-08-29 17:35:00,88.9,69.0,29.80,South,175,8.0,11.0,52,0.00,,---,0.00,141.00,VWS V14.01,2013-08-29 22:35:00,
2013-08-29 17:40:00,88.2,67.8,29.80,SSW,192,15.0,15.0,51,0.00,,---,0.00,134.00,VWS V14.01,2013-08-29 22:40:00,
2013-08-29 17:45:00,88.3,69.0,29.80,SSW,205,13.0,15.0,53,0.00,,---,0.00,385.00,VWS V14.01,2013-08-29 22:45:00,
2013-08-29 17:50:00,88.8,69.5,29.80,SSW,194,12.0,13.0,53,0.00,,---,0.00,353.00,VWS V14.01,2013-08-29 22:50:00,
2013-08-29 17:55:00,89.1,69.8,29.80,SSW,210,10.0,14.0,53,0.00,,---,0.00,332.00,VWS V14.01,2013-08-29 22:55:00,
2013-08-29 18:00:00,89.3,69.9,29.80,SSW,199,6.0,14.0,53,0.00,,---,0.00,309.00,VWS V14.01,2013-08-29 23:00:00,
2013-08-29 18:05:00,89.2,70.4,29.80,SSW,198,5.0,11.0,54,0.00,,---,0.00,323.00,VWS V14.01,2013-08-29 23:05:00,
2013-08-29 18:10:00,89.3,70.5,29.80,SSW,206,6.0,11.0,54,0.00,,---,0.00,297.00,VWS V14.01,2013-08-29 23:10:00,
2013-08-29 18:15:00,89.5,70.1,29.80,SW,221,6.0,11.0,53,0.00,,---,0.00,267.00,VWS V14.01,2013-08-29 23:15:00,
2013-08-29 18:20:00,89.5,69.6,29.80,SW,215,7.0,12.0,52,0.00,,---,0.00,229.00,VWS V14.01,2013-08-29 23:20:00,
2013-08-29 18:25:00,89.4,70.0,29.80,SW,217,4.0,12.0,53,0.00,,---,0.00,199.00,VWS V14.01,2013-08-29 23:25:00,
2013-08-29 18:30:00,89.0,71.3,29.80,SSW,211,4.0,12.0,56,0.00,,---,0.00,65.00,VWS V14.01,2013-08-29 23:30:00,
2013-08-29 18:35:00,88.5,71.3,29.80,SSW,207,4.0,5.0,57,0.00,,---,0.00,63.00,VWS V14.01,2013-08-29 23:35:00,
2013-08-29 18:40:00,87.9,71.3,29.80,SSW,210,4.0,6.0,58,0.00,,---,0.00,62.00,VWS V14.01,2013-08-29 23:40:00,
2013-08-29 18:45:00,87.5,70.9,29.80,SSW,212,4.0,6.0,58,0.00,,---,0.00,144.00,VWS V14.01,2013-08-29 23:45:00,
2013-08-29 18:50:00,87.4,71.8,29.79,SSW,211,4.0,5.0,60,0.00,,---,0.00,76.00,VWS V14.01,2013-08-29 23:50:00,
2013-08-29 18:55:00,87.3,71.7,29.79,SSW,211,2.0,5.0,60,0.00,,---,0.00,139.00,VWS V14.01,2013-08-29 23:55:00,
2013-08-29 19:00:00,87.2,73.1,29.79,SSW,210,0.0,5.0,63,0.00,,---,0.00,125.00,VWS V14.01,2013-08-30 00:00:00,
2013-08-29 19:05:00,87.2,72.6,29.79,SSW,210,3.0,4.0,62,0.00,,---,0.00,111.00,VWS V14.01,2013-08-30 00:05:00,
2013-08-29 19:10:00,87.1,72.5,29.79,SSW,210,4.0,5.0,62,0.00,,---,0.00,93.00,VWS V14.01,2013-08-30 00:10:00,
2013-08-29 19:15:00,87.0,72.9,29.79,SSW,210,1.0,5.0,63,0.00,,---,0.00,77.00,VWS V14.01,2013-08-30 00:15:00,
2013-08-29 19:20:00,86.8,73.6,29.79,SSW,210,2.0,2.0,65,0.00,,---,0.00,60.00,VWS V14.01,2013-08-30 00:20:00,
2013-08-29 19:25:00,86.4,73.2,29.79,SSW,210,2.0,4.0,65,0.00,,---,0.00,42.00,VWS V14.01,2013-08-30 00:25:00,
2013-08-29 19:30:00,86.0,73.8,29.79,SSW,210,2.0,4.0,67,0.00,,---,0.00,32.00,VWS V14.01,2013-08-30 00:30:00,
2013-08-29 19:35:00,85.7,73.5,29.79,SSW,210,1.0,1.0,67,0.00,,---,0.00,25.00,VWS V14.01,2013-08-30 00:35:00,
2013-08-29 19:40:00,85.2,73.4,29.79,SSW,210,2.0,2.0,68,0.00,,---,0.00,19.00,VWS V14.01,2013-08-30 00:40:00,
2013-08-29 19:45:00,84.7,73.8,29.79,SSW,210,1.0,2.0,70,0.00,,---,0.00,14.00,VWS V14.01,2013-08-30 00:45:00,
2013-08-29 19:50:00,84.3,73.9,29.79,SSW,210,1.0,2.0,71,0.00,,---,0.00,11.00,VWS V14.01,2013-08-30 00:50:00,
2013-08-29 19:55:00,83.8,73.4,29.78,SSW,210,1.0,2.0,71,0.00,,---,0.00,7.00,VWS V14.01,2013-08-30 00:55:00,
2013-08-29 20:00:00,83.2,73.2,29.79,SSW,210,1.0,2.0,72,0.00,,---,0.00,0.00,VWS V14.01,2013-08-30 01:00:00,
2013-08-29 20:05:00,82.6,73.1,29.79,SSW,210,0.0,0.0,73,0.00,,---,0.00,0.00,VWS V14.01,2013-08-30 01:05:00,
2013-08-29 20:10:00,82.3,73.2,29.79,SSW,210,0.0,0.0,74,0.00,,---,0.00,0.00,VWS V14.01,2013-08-30 01:10:00,
2013-08-29 20:15:00,81.9,73.2,29.79,SSW,210,0.0,0.0,75,0.00,,---,0.00,0.00,VWS V14.01,2013-08-30 01:15:00,
2013-08-29 20:20:00,81.6,72.9,29.78,SSW,210,0.0,0.0,75,0.00,,---,0.00,0.00,VWS V14.01,2013-08-30 01:20:00,
2013-08-29 20:25:00,81.3,73.0,29.79,SSW,210,0.0,0.0,76,0.00,,---,0.00,0.00,VWS V14.01,2013-08-30 01:25:00,
2013-08-29 20:30:00,81.1,72.8,29.79,SSW,210,0.0,0.0,76,0.00,,---,0.00,0.00,VWS V14.01,2013-08-30 01:30:00,
2013-08-29 20:35:00,80.9,72.6,29.79,SSW,210,0.0,0.0,76,0.00,,---,0.00,0.00,VWS V14.01,2013-08-30 01:35:00,
2013-08-29 20:40:00,80.7,72.8,29.79,SSW,210,0.0,0.0,77,0.00,,---,0.00,0.00,VWS V14.01,2013-08-30 01:40:00,
2013-08-29 20:45:00,80.5,72.6,29.79,SSW,210,0.0,0.0,77,0.00,,---,0.00,0.00,VWS V14.01,2013-08-30 01:45:00,
2013-08-29 20:50:00,80.3,72.8,29.79,SSW,210,0.0,0.0,78,0.00,,---,0.00,0.00,VWS V14.01,2013-08-30 01:50:00,
2013-08-29 20:55:00,80.0,72.5,29.79,SSW,210,2.0,3.0,78,0.00,,---,0.00,0.00,VWS V14.01,2013-08-30 01:55:00,
2013-08-29 21:00:00,79.4,72.3,29.79,SSW,210,2.0,3.0,79,0.00,,---,0.00,0.00,VWS V14.01,2013-08-30 02:00:00,
2013-08-29 21:05:00,78.8,72.5,29.80,SSW,210,2.0,2.0,81,0.00,,---,0.00,0.00,VWS V14.01,2013-08-30 02:05:00,
2013-08-29 21:10:00,78.4,72.4,29.79,SSW,210,1.0,3.0,82,0.00,,---,0.00,0.00,VWS V14.01,2013-08-30 02:10:00,
2013-08-29 21:15:00,78.0,72.1,29.79,SSW,210,1.0,3.0,82,0.00,,---,0.00,0.00,VWS V14.01,2013-08-30 02:15:00,
2013-08-29 21:20:00,77.7,72.1,29.79,SSW,210,0.0,1.0,83,0.00,,---,0.00,0.00,VWS V14.01,2013-08-30 02:20:00,
2013-08-29 21:25:00,77.6,72.0,29.79,SSW,210,0.0,1.0,83,0.00,,---,0.00,0.00,VWS V14.01,2013-08-30 02:25:00,
2013-08-29 21:30:00,77.4,72.2,29.79,SSW,210,1.0,2.0,84,0.00,,---,0.00,0.00,VWS V14.01,2013-08-30 02:30:00,
2013-08-29 21:35:00,77.4,72.2,29.79,SSW,210,4.0,4.0,84,0.00,,---,0.00,0.00,VWS V14.01,2013-08-30 02:35:00,
2013-08-29 21:40:00,77.3,72.1,29.79,SSW,210,1.0,4.0,84,0.00,,---,0.00,0.00,VWS V14.01,2013-08-30 02:40:00,
2013-08-29 21:45:00,77.2,72.0,29.79,SSW,209,2.0,4.0,84,0.00,,---,0.00,0.00,VWS V14.01,2013-08-30 02:45:00,
2013-08-29 21:50:00,77.1,71.9,29.80,SSW,209,0.0,1.0,84,0.00,,---,0.00,0.00,VWS V14.01,2013-08-30 02:50:00,
2013-08-29 21:55:00,77.0,71.8,29.80,SSW,209,0.0,1.0,84,0.00,,---,0.00,0.00,VWS V14.01,2013-08-30 02:55:00,
2013-08-29 22:00:00,76.9,71.7,29.80,SSW,209,0.0,1.0,84,0.00,,---,0.00,0.00,VWS V14.01,2013-08-30 03:00:00,
2013-08-29 22:05:00,76.7,71.9,29.79,SSW,209,0.0,0.0,85,0.00,,---,0.00,0.00,VWS V14.01,2013-08-30 03:05:00,
2013-08-29 22:10:00,76.5,71.7,29.80,SSW,209,0.0,0.0,85,0.00,,---,0.00,0.00,VWS V14.01,2013-08-30 03:10:00,
2013-08-29 22:15:00,76.3,71.5,29.79,SSW,209,0.0,0.0,85,0.00,,---,0.00,0.00,VWS V14.01,2013-08-30 03:15:00,
2013-08-29 22:20:00,76.1,71.6,29.79,SSW,209,0.0,0.0,86,0.00,,---,0.00,0.00,VWS V14.01,2013-08-30 03:20:00,
2013-08-29 22:25:00,76.0,71.5,29.79,SSW,209,0.0,0.0,86,0.00,,---,0.00,0.00,VWS V14.01,2013-08-30 03:25:00,
2013-08-29 22:30:00,75.8,71.7,29.79,SSW,209,0.0,0.0,87,0.00,,---,0.00,0.00,VWS V14.01,2013-08-30 03:30:00,
2013-08-29 22:35:00,75.7,71.6,29.79,SSW,209,0.0,0.0,87,0.00,,---,0.00,0.00,VWS V14.01,2013-08-30 03:35:00,
2013-08-29 22:40:00,75.6,71.5,29.79,SSW,209,0.0,0.0,87,0.00,,---,0.00,0.00,VWS V14.01,2013-08-30 03:40:00,
2013-08-29 22:45:00,75.5,71.4,29.79,SSW,209,0.0,0.0,87,0.00,,---,0.00,0.00,VWS V14.01,2013-08-30 03:45:00,
2013-08-29 22:50:00,75.4,71.3,29.79,SSW,209,0.0,0.0,87,0.00,,---,0.00,0.00,VWS V14.01,2013-08-30 03:50:00,
2013-08-29 22:55:00,75.3,71.2,29.79,SSW,209,0.0,0.0,87,0.00,,---,0.00,0.00,VWS V14.01,2013-08-30 03:55:00,
2013-08-29 23:00:00,75.2,71.1,29.79,SSW,209,0.0,0.0,87,0.00,,---,0.00,0.00,VWS V14.01,2013-08-30 04:00:00,
2013-08-29 23:01:00,75.1,71.0,29.79,SSW,209,0.0,0.0,87,0.00,,---,0.00,0.00,VWS V14.01,2013-08-30 04:01:00,
2013-08-29 23:02:00,75.1,71.0,29.79,SSW,209,0.0,0.0,87,0.00,,---,0.00,0.00,VWS V14.01,2013-08-30 04:02:00,
2013-08-29 23:07:00,75.0,71.2,29.79,SSW,209,0.0,0.0,88,0.00,,---,0.00,0.00,VWS V14.01,2013-08-30 04:07:00,
2013-08-29 23:12:00,75.0,71.2,29.79,SSW,209,0.0,0.0,88,0.00,,---,0.00,0.00,VWS V14.01,2013-08-30 04:12:00,
2013-08-29 23:17:00,74.9,71.1,29.79,SSW,209,0.0,0.0,88,0.00,,---,0.00,0.00,VWS V14.01,2013-08-30 04:17:00,
2013-08-29 23:22:00,74.7,70.9,29.79,SSW,209,0.0,0.0,88,0.00,,---,0.00,0.00,VWS V14.01,2013-08-30 04:22:00,
2013-08-29 23:27:00,74.6,70.8,29.79,SSW,209,0.0,0.0,88,0.00,,---,0.00,0.00,VWS V14.01,2013-08-30 04:27:00,
2013-08-29 23:32:00,74.5,71.1,29.79,SSW,209,0.0,0.0,89,0.00,,---,0.00,0.00,VWS V14.01,2013-08-30 04:32:00,
2013-08-29 23:37:00,74.5,71.1,29.79,SSW,209,0.0,0.0,89,0.00,,---,0.00,0.00,VWS V14.01,2013-08-30 04:37:00,
2013-08-29 23:42:00,74.4,70.9,29.79,SSW,209,0.0,0.0,89,0.00,,---,0.00,0.00,VWS V14.01,2013-08-30 04:42:00,
2013-08-29 23:47:00,74.4,70.9,29.79,SSW,209,0.0,0.0,89,0.00,,---,0.00,0.00,VWS V14.01,2013-08-30 04:47:00,
2013-08-29 23:52:00,74.4,71.3,29.79,SSW,209,0.0,0.0,90,0.00,,---,0.00,0.00,VWS V14.01,2013-08-30 04:52:00,
2013-08-29 23:57:00,74.5,71.4,29.79,SSW,209,0.0,0.0,90,0.00,,---,0.00,0.00,VWS V14.01,2013-08-30 04:57:00,